Weather History for Moline, IL

Change the Weather History Date:

Sunday, September 29, 2013

  Actual Average Record
Temperature  
Mean Temperature 58 °F 60 °F  
Max Temperature 73 °F 71 °F 99 °F (1953)
Min Temperature 43 °F 48 °F 30 °F (1984)
Degree Days  
Heating Degree Days 7 7  
Month to date heating degree days 62 89  
Since 1 July heating degree days 73 97  
Cooling Degree Days 0 1  
Month to date cooling degree days 157 106  
Year to date cooling degree days 971 989  
Growing Degree Days 8 (Base 50)    
Moisture  
Dew Point 46 °F    
Average Humidity 65    
Maximum Humidity 100    
Minimum Humidity 29    
Precipitation  
Precipitation 0.00 in 0.08 in 1.19 in (1893)
Month to date precipitation 0.96 3.00  
Year to date precipitation 33.57 30.16  
Snow  
Snow 0.00 in 0.00 in - ()
Month to date snowfall 0.0 0.0  
Since 1 July snowfall 0.0 0.0  
Since 1 September snowfall 0.0 0.0  
Snow Depth 0.00 in    
Sea Level Pressure  
Sea Level Pressure 30.04 in    
Wind  
Wind Speed 1 mph (WSW)    
Max Wind Speed 9 mph    
Max Gust Speed 12 mph    
Visibility 5 miles    
Events Fog    
T = Trace of Precipitation, MM = Missing Value Source: NWS Daily Summary

Daily Weather History Graph

Daily Weather History Graph

Search for Another Location

Airport:

Trip Planner

Search our weather history database for the weather conditions in past years. The results will help you decide how hot, cold, wet, or windy it might be!

Date:

Astronomy

Sep. 29, 2013 Rise Set
Actual Time 6:56 AM CDT 6:46 PM CDT
Civil Twilight 6:29 AM CDT 7:14 PM CDT
Nautical Twilight 5:57 AM CDT 7:46 PM CDT
Astronomical Twilight 5:24 AM CDT 8:18 PM CDT
Moon 1:35 AM CDT (9/29) 3:45 PM CDT (9/29)
Length of Visible Light 12h 44m
Length of Day
11h 49m
Waning Crescent, 27% of the Moon is Illuminated
Sep 29
Waning Crescent
Oct 4
New
Oct 11
First Quarter
Oct 18
Full
Oct 26
Last Quarter

Hourly Weather History & Observations

Time (CDT) Temp. Dew Point Humidity Pressure Visibility Wind Dir Wind Speed Gust Speed Precip Events Conditions
12:52 AM 52.0 °F 51.1 °F 97% 30.04 in 10.0 mi West 3.5 mph - N/A   Clear
1:18 AM 51.8 °F 50.0 °F 94% 30.04 in 1.2 mi Calm Calm - N/A   Clear
1:29 AM 50.0 °F 50.0 °F 100% 30.04 in 2.0 mi Calm Calm - N/A   Clear
1:36 AM 51.8 °F 48.2 °F 88% 30.04 in 6.0 mi West 3.5 mph - N/A   Clear
1:52 AM 51.1 °F 48.9 °F 92% 30.04 in 4.0 mi WSW 3.5 mph - N/A   Clear
2:52 AM 48.9 °F 48.0 °F 97% 30.04 in 2.5 mi Calm Calm - N/A   Clear
3:26 AM 46.4 °F 46.4 °F 100% 30.04 in 1.8 mi Calm Calm - N/A   Clear
3:30 AM 46.4 °F 46.4 °F 100% 30.04 in 3.0 mi Calm Calm - N/A   Clear
3:44 AM 48.2 °F 46.4 °F 93% 30.04 in 2.0 mi Calm Calm - N/A   Clear
3:52 AM 48.0 °F 46.9 °F 96% 30.04 in 4.0 mi Calm Calm - N/A   Clear
4:00 AM 46.4 °F 46.4 °F 100% 30.04 in 1.8 mi Calm Calm - N/A   Clear
4:16 AM 46.4 °F 46.4 °F 100% 30.04 in 2.0 mi Calm Calm - N/A   Clear
4:34 AM 46.4 °F 44.6 °F 93% 30.04 in 1.8 mi Calm Calm - N/A   Clear
4:42 AM 46.4 °F 44.6 °F 93% 30.04 in 3.0 mi Calm Calm - N/A   Clear
4:52 AM 46.0 °F 45.0 °F 96% 30.04 in 3.0 mi Calm Calm - N/A   Clear
5:04 AM 44.6 °F 44.6 °F 100% 30.04 in 4.0 mi Calm Calm - N/A   Scattered Clouds
5:13 AM 46.4 °F 44.6 °F 93% 30.05 in 3.0 mi Calm Calm - N/A   Mostly Cloudy
5:27 AM 46.4 °F 44.6 °F 93% 30.05 in 1.8 mi Calm Calm - N/A   Overcast
5:35 AM 46.4 °F 44.6 °F 93% 30.05 in 1.0 mi Calm Calm - N/A   Mist
5:41 AM 46.4 °F 44.6 °F 93% 30.05 in 2.0 mi Calm Calm - N/A   Overcast
5:48 AM 46.4 °F 44.6 °F 93% 30.06 in 1.2 mi Calm Calm - N/A   Overcast
5:52 AM 46.0 °F 45.0 °F 96% 30.06 in 0.8 mi Calm Calm - N/A   Mist
6:47 AM 44.6 °F 42.8 °F 93% 30.07 in 0.2 mi Calm Calm - N/A Fog Fog
6:52 AM 45.0 °F 43.0 °F 93% 30.07 in 0.2 mi Calm Calm - N/A Fog Fog
7:19 AM 44.6 °F 42.8 °F 93% 30.07 in 0.2 mi Calm Calm - N/A Fog Fog
7:52 AM 46.9 °F 46.0 °F 97% 30.08 in 0.2 mi Calm Calm - N/A Fog Fog
8:04 AM 48.2 °F 48.2 °F 100% 30.08 in 0.5 mi Calm Calm - N/A Fog Fog
8:08 AM 50.0 °F 48.2 °F 94% 30.08 in 1.5 mi Calm Calm - N/A   Mostly Cloudy
8:14 AM 50.0 °F 50.0 °F 100% 30.08 in 2.5 mi Calm Calm - N/A   Scattered Clouds
8:35 AM 51.8 °F 51.8 °F 100% 30.08 in 3.0 mi Calm Calm - N/A   Scattered Clouds
8:52 AM 53.1 °F 51.1 °F 93% 30.09 in 8.0 mi Calm Calm - N/A   Clear
9:52 AM 57.9 °F 52.0 °F 81% 30.10 in 10.0 mi Calm Calm - N/A   Clear
10:52 AM 63.0 °F 51.1 °F 65% 30.10 in 10.0 mi East 4.6 mph - N/A   Clear
11:52 AM 66.9 °F 46.0 °F 47% 30.09 in 10.0 mi Variable 3.5 mph - N/A   Clear
12:52 PM 66.9 °F 43.0 °F 42% 30.07 in 10.0 mi Calm Calm - N/A   Clear
1:52 PM 70.0 °F 41.0 °F 35% 30.04 in 10.0 mi NNE 6.9 mph - N/A   Clear
2:52 PM 71.1 °F 39.9 °F 32% 30.02 in 10.0 mi Calm Calm - N/A   Clear
3:52 PM 72.0 °F 39.9 °F 31% 30.01 in 10.0 mi Calm Calm - N/A   Clear
4:52 PM 72.0 °F 37.9 °F 29% 30.00 in 10.0 mi East 3.5 mph - N/A   Clear
5:52 PM 71.1 °F 37.9 °F 30% 30.00 in 10.0 mi Calm Calm - N/A   Clear
6:52 PM 60.1 °F 48.0 °F 64% 29.99 in 10.0 mi Calm Calm - N/A   Clear
7:52 PM 54.0 °F 48.0 °F 80% 30.00 in 10.0 mi Calm Calm - N/A   Clear
8:52 PM 51.1 °F 46.9 °F 86% 30.00 in 10.0 mi Calm Calm - N/A   Clear
9:52 PM 50.0 °F 46.0 °F 86% 30.00 in 10.0 mi Calm Calm - N/A   Clear
10:52 PM 46.9 °F 44.1 °F 90% 30.00 in 10.0 mi Calm Calm - N/A   Clear
11:52 PM 50.0 °F 42.1 °F 74% 29.99 in 10.0 mi Calm Calm - N/A   Clear